Terminal Aerodrome Forecast
Issued by NWS

Home | Current Version | Previous Version | Text Only | Print | Product List | Glossary On
Versions: 1 2 3 4 5 6 7 8 9 10 11 12 13 14
417
FTUS46 KMTR 240521
TAFOAK
TAF
KOAK 240521Z 2406/2512 28010KT P6SM SCT008
      TEMPO 2406/2410 BKN008
     FM241000 29010KT P6SM OVC008
     FM241900 29015G22KT P6SM FEW011 SCT250
     FM250400 29015KT P6SM OVC011
     FM250800 29010KT P6SM OVC010=

USA.gov is the U.S. government's official web portal to all federal, state and local government web resources and services.